Showing default

YAOGAN 27, 40878

Orbit data source: Space-Track

YAOGAN 27, 40878 is a payload satellite owned by PLA GAD (CN) in SSO that was launched on Thu, 27 Aug 2015 UTC via a CHANG ZHENG 4C launch vehicle from the Taiyaun Space Center, China (TSC). Payload-class satellites include a variety of spacecraft equipped with specific instruments for various scientific and technological missions. These include communications satellites like Starlink; space stations such as the ISS; scientific satellites like the Hubble; Earth observation satellites from companies like Planet Labs, Umbra, and HawkEye 360; GPS; miniature CubeSats for education and research; and military/defense satellites.

Loading next visibility...
Identifier
40878, 2015-040A
Orbit
SSO
Country
Flag of CNCN / PRC
Related business
Manufacturer
SAST
Mission
Operational Defense Imaging
Bus & Motor
JB-9, Unknown motor
Mass
1,040 kg wet, 1,040 kg dry
Launch date (UTC)
2015-08-27 (11 years ago)
Launch vehicle
CHANG ZHENG 4C
Launch site
Taiyaun Space Center, China (TSC)
Object type
Payload
Rocket body
Debris
Shape & HBR
Box + 2 Pan, 2.5 m
Radar Cross Section
4.795 m², Large (>1 m²)

Expand to show TLE details & history
Last TLE update: 22 hours ago

TLE from 22 hours ago
0 YAOGAN 27
1 40878U 15040A   26172.51378911 -.00000410  00000-0 -96877-3 0  9997
2 40878 100.1159 158.7092 0007793 199.9680 160.1130 13.16069011518235
Epoch: 2026-06-21T12:19Z
TLE epoch observation values (Epoch: 2026-06-21T12:19:51.379Z)
Latitude
0.00002°
Longitude
64.03214°
Altitude
1,208.051 km
Speed
7.247 km/s
True Right ascension
10h 34m 50s
True Declination
0° 00' 00"
Sunlit
Object was in daylight at epoch
Visualization orbit readout
Latitude
Unknown
Longitude
Unknown
Altitude
Unknown
Speed
Unknown
Apparent Right ascension
Unknown
Apparent Declination
Unknown
Sunlit
N/A
Visualization observer readout
Local Sidereal Time
21:41:04
Azimuth
Unknown
Elevation
Unknown
Doppler factor
Unknown
Orbital elements
Apogee altitude
1,203.044 km
Perigee altitude
1,191.237 km
Semi-major axis
7,575.278 km
Eccentricity
0.00078
Inclination
100.1159°
RAAN
158.7092°
Arg. of periapsis
199.968°
True anomaly
160.14335°
Mean anomaly
160.113°
Eccentric anomaly
160.12818°
Mean motion
3.29189 °/min
Orbital period
109.36 mins
BSTAR
-0.00096877
Loading maneuver chart data...
Computing Atmospheric mass density...
Loading historical data...
Loading historical data...
Loading historical data...
Loading historical data...
Loading historical data...
Loading historical data...
Loading historical data...
Other satellites on launch #40 in the year 2015 (2015-08-27 UTC)

Documentation

Showing up to 5 results
|